Find Starlink 31542

NORAD ID: 59194 Int'l Des: 2024-045 Owner: SPXS Country: US Constellation: starlink operational
LEOCIRCULAR

Current View

Loading 3D Globe...

About Starlink 31542

Starlink 31542 (NORAD 59194) is a starlink constellation satellite (v2 mini) launched Mar 11, 2024 by SPXS of US. It operates in LEO, CIRCULAR orbit with a mass of 730.00 kg.

Upcoming Passes

Passes for default location (London). Set your location on the main map for personalized predictions.

Altitude History

Loading altitude history...

Two-Line Element Set

1 59194U 24045S 26237.63348095 .00000409 00000-0 24384-4 0 9999
2 59194 43.0013 218.0473 0001186 270.5962 89.4754 15.27578388139007
Epoch: Aug 25, 2026 • Age: 26 hours

Current Status

Altitude 487.4 km
Apogee / Perigee N/A
Velocity 7.62 km/s
Sub-Earth Point -20.60°S, 177.88°W
Launch Date Mar 11, 2024
Age 2.4 years
Type internet

Technical Details

Classification Payload
Mass 730.00 kg
Dry Mass 700.00 kg
Total Mass 730.00 kg
Length 0.30 m
Diameter 4.10 m
Span 29.00 m
Shape Box + pan
Manufacturer SPXS
Bus Type Starlink V2M
Phase Status In Orbit
Owner/State SPXS/US

Most Searched